Hourly Data Report for May 30, 2021

CARIBOU POINT (AUT)
NOVA SCOTIA
Current Station Operator: ECCC - MSC

45°46'00.000" N
62°41'00.000" W
2.40 m
8200774
71415
WBK

Download Data

Hourly Data (May 2021)
Hourly Data Report for May 30, 2021
TIME
LST
Temp Definition
°C
Dew Point Definition
°C
Rel Hum Definition
%
Precip. Amount Definition
mm

Wind Dir Definition
10's deg

Wind Spd Definition
km/h
Visibility Definition
km
Stn Press Definition
kPa
Hmdx Definition


Wind Chill Definition


Weather Definition


00:00 7.7 4.2 78 0.0 7 12   102.59     LegendNANA
01:00 7.5 4.2 79 0.0 9 10   102.59     LegendNANA
02:00 7.4 4.6 82 0.0 7 16   102.58     LegendNANA
03:00 7.0 4.1 82 0.0 7 19   102.59     LegendNANA
04:00 7.2 4.4 82 0.0 6 18   102.70     LegendNANA
05:00 7.6 4.8 83 0.0 6 19   102.78     LegendNANA
06:00 8.1 4.9 80 0.0 6 19   102.88     LegendNANA
07:00 8.4 5.1 80 0.0 5 16   102.92     LegendNANA
08:00 8.2 5.2 81 0.0 4 20   102.97     LegendNANA
09:00 8.5 5.8 83 0.0 5 21   103.04     LegendNANA
10:00 9.2 5.5 77 0.0 5 24   103.07     LegendNANA
11:00 9.6 4.4 70 0.0 5 24   103.10     LegendNANA
12:00 10.3 4.0 65 0.0 5 25   103.10     LegendNANA
13:00 10.5 5.5 71 0.0 4 24   103.12     LegendNANA
14:00 10.0 5.0 71 0.0 5 25   103.10     LegendNANA
15:00 10.6 5.1 68 0.0 6 17   103.07     LegendNANA
16:00 10.8 6.0 72 0.0 7 13   103.11     LegendNANA
17:00 10.8 6.3 74 0.0 7 14   103.08     LegendNANA
18:00 10.0 5.7 74 0.0 8 19   103.07     LegendNANA
19:00 9.7 5.4 74 0.0 8 24   103.07     LegendNANA
20:00 9.3 6.6 83 0.0 9 27   103.08     LegendNANA
21:00 9.4 7.8 90 0.0 10 20   103.12     LegendNANA
22:00 9.2 6.5 83 0.0 12 29   103.13     LegendNANA
23:00 8.9 6.5 85 0.0 12 25   103.07     LegendNANA

Notes on Data Quality.

Legend

  • E = Estimated
  • M = Missing
  • NA = Not Available*
  • [empty] = Indicates an unobserved value
Date modified: